GFSSE_prec_cthk_042.txt.gz
RH
67 60 58 55 57 59 58 54 47 43 39 33 27 22 19 13 8 8 9 10 10 10 11 12 13 13 13 14 14 14 13 12 13 22 27 41 40 36 24 28 28 29 30
76 66 61 59 62 62 60 54 47 46 37 29 23 17 14 10 6 9 11 12 13 14 14 15 15 16 16 17 17 17 17 19 26 30 35 46 64 46 31 34 31 34 33
82 71 68 65 65 61 60 54 50 48 33 24 16 15 12 7 9 12 14 15 16 17 18 18 18 18 18 19 20 19 21 27 35 42 43 50 55 45 31 32 34 37 34
78 74 73 73 68 65 66 58 52 35 24 18 15 12 8 10 12 15 17 19 20 21 21 21 20 20 20 20 20 22 27 31 39 48 52 46 43 37 34 36 35 37 36
83 82 79 80 77 74 68 59 41 25 18 15 13 8 11 14 17 19 21 22 23 23 22 21 22 23 23 22 21 22 26 29 34 45 41 38 34 26 25 28 31 28 28
88 87 86 88 84 76 70 51 32 19 12 11 9 11 16 20 22 23 24 24 25 25 26 29 32 32 29 29 28 27 27 30 31 34 30 30 24 22 23 25 28 29 28
90 92 88 91 84 72 58 40 21 11 10 10 13 19 23 25 25 25 26 27 28 30 33 36 35 34 33 32 32 32 32 34 37 40 37 37 30 25 25 24 23 25 28
98 94 91 86 80 64 42 27 16 11 11 16 20 24 27 26 26 28 31 31 34 36 35 35 36 35 33 34 32 31 30 32 37 41 41 40 34 27 25 25 25 25 26
94 91 90 90 72 52 40 25 14 12 15 21 25 28 28 28 29 32 34 38 40 40 40 38 39 40 39 40 37 37 35 33 35 39 37 37 36 31 29 29 26 25 26
89 94 92 74 56 44 31 21 13 15 22 26 29 31 31 32 34 39 41 41 41 42 44 44 46 45 45 45 43 41 40 36 37 36 33 32 32 30 28 28 29 28 27
97 90 76 63 42 28 19 14 12 19 26 30 34 37 41 45 47 46 43 43 44 45 46 48 50 50 50 51 47 45 43 39 40 40 37 35 33 30 27 24 24 26 28
90 81 62 46 47 32 16 13 15 27 32 35 39 46 52 56 57 55 52 49 52 53 55 59 61 59 56 55 51 47 44 41 41 41 37 37 35 32 29 25 24 24 23
74 60 46 38 35 30 20 17 25 35 43 48 49 53 67 57 65 66 72 66 68 66 65 65 65 59 57 52 51 48 45 41 40 39 37 36 36 33 30 27 24 23 23
47 38 31 29 28 26 21 30 35 45 46 54 54 58 67 74 77 76 77 81 73 70 70 68 65 60 54 51 49 46 43 40 37 36 35 32 31 29 25 22 20 19 19
37 35 31 23 26 23 32 43 49 58 64 66 71 78 82 82 83 81 82 81 75 73 71 65 60 56 50 47 44 40 38 35 31 32 30 25 22 23 22 20 17 15 13
35 32 25 22 23 32 40 43 53 62 62 71 83 86 83 81 79 81 77 73 72 69 63 59 54 48 45 42 38 35 33 30 25 25 26 23 23 26 25 24 20 17 15
37 35 33 36 44 44 44 49 55 60 67 70 77 81 81 80 77 79 81 74 65 57 52 51 47 45 40 36 33 30 29 27 24 25 24 23 31 32 29 28 26 23 20
47 45 49 53 54 56 63 66 71 72 74 78 74 78 80 82 81 75 68 59 53 50 48 45 42 39 35 32 29 29 31 28 27 28 27 32 35 37 36 35 33 29 24
48 54 55 56 60 71 76 79 81 85 78 74 72 76 78 73 66 56 51 53 53 50 48 44 42 37 33 32 32 32 31 29 28 28 34 39 39 38 36 35 36 36 35
55 56 61 65 66 68 72 78 80 76 72 67 65 61 60 55 50 51 53 54 54 52 49 46 44 45 43 40 38 36 35 36 32 32 39 38 41 40 39 37 37 38 37
55 58 62 63 64 65 73 75 66 62 63 60 60 55 51 50 53 55 56 56 55 56 52 47 45 45 42 40 40 38 36 35 36 33 36 37 39 40 38 37 37 36 34
51 57 61 62 67 74 75 68 61 60 58 53 49 52 55 56 57 59 60 62 60 56 47 45 44 41 43 44 41 39 39 37 38 36 36 37 38 40 42 44 40 36 35
57 63 60 65 71 66 64 62 58 53 51 52 55 58 60 62 62 62 62 60 57 49 47 44 43 45 46 44 40 46 45 43 38 35 35 32 32 34 36 39 42 46 41
61 63 64 70 63 64 59 56 56 55 56 57 60 62 62 65 63 65 61 56 53 50 45 41 43 45 45 46 42 45 46 49 48 44 43 39 39 38 34 35 39 41 41
62 62 65 64 62 61 55 57 56 60 61 64 69 69 73 75 70 62 58 57 55 50 47 44 48 49 46 47 47 44 51 58 56 59 51 50 48 45 38 39 46 44 44
59 59 60 60 65 61 58 58 59 60 63 66 68 70 74 72 69 64 61 57 51 47 40 43 42 40 37 40 44 48 57 63 66 65 63 54 50 40 38 46 44 43 41

GFSSE_prec_cthk_045.txt.gz
RH
70 63 62 64 67 64 61 58 51 45 39 34 29 22 11 7 6 8 9 10 12 13 14 14 14 14 15 15 14 16 19 26 28 28 33 38 48 49 37 30 28 26 28
75 73 67 66 65 65 63 57 53 47 41 32 24 17 10 5 7 10 12 13 14 15 15 16 16 16 15 16 16 24 30 32 30 30 38 47 45 45 36 29 28 28 34
81 77 74 67 68 66 62 60 57 48 41 26 21 14 8 7 10 12 14 15 16 17 17 17 17 16 16 18 22 28 32 33 36 38 39 43 39 30 33 31 32 32 31
82 78 74 71 70 68 66 66 60 48 35 23 16 9 8 10 13 14 17 18 19 19 18 18 18 20 20 22 24 25 27 29 35 35 35 34 28 25 25 25 28 28 28
82 81 76 76 73 73 70 68 58 41 29 22 11 8 10 12 16 18 19 20 20 20 21 24 27 28 28 28 27 26 26 29 33 33 31 28 25 21 21 22 25 28 29
81 82 80 81 79 76 73 66 49 32 25 19 9 12 13 17 20 20 21 21 23 25 28 30 29 31 31 31 30 31 34 36 38 33 35 37 35 26 23 24 24 24 25
95 88 85 87 87 81 72 56 41 24 20 13 12 15 18 21 22 23 24 25 28 31 34 33 34 33 33 31 30 29 30 35 39 35 36 37 35 31 26 26 25 25 25
98 98 90 90 87 83 59 42 27 15 10 12 17 20 23 23 24 25 27 29 32 35 36 38 39 38 38 39 39 35 35 35 37 36 35 33 33 33 29 26 27 27 27
99 98 94 90 86 70 50 35 23 21 22 21 21 23 24 24 28 29 30 32 35 37 39 40 42 43 45 45 43 41 39 40 39 37 36 34 32 30 28 26 25 26 30
97 90 89 90 79 56 44 31 23 18 23 26 27 27 28 28 30 31 35 37 39 40 40 42 46 49 51 49 46 42 42 42 41 39 37 37 35 33 29 26 22 22 24
94 87 91 83 62 52 40 28 22 25 29 29 28 30 32 34 37 40 39 41 44 46 49 53 57 55 56 54 50 44 42 43 43 42 40 39 37 34 32 28 24 23 23
91 76 73 57 51 39 27 16 15 21 25 28 34 37 37 40 45 48 55 56 58 60 60 61 60 60 57 56 52 47 42 40 38 36 36 36 35 34 32 30 26 24 23
78 72 61 49 37 28 20 18 21 23 29 32 38 45 46 53 59 67 71 69 68 68 67 62 65 63 55 52 50 45 40 38 36 32 32 31 29 29 27 26 24 23 22
64 60 44 36 31 23 17 20 24 29 31 36 39 51 58 69 72 75 75 75 69 69 69 66 63 60 50 46 42 38 36 34 31 28 29 30 27 26 25 24 23 22 20
50 44 39 36 30 24 23 28 31 32 39 48 55 57 70 74 75 75 71 71 71 69 63 59 54 47 43 40 36 34 32 31 29 28 28 28 28 26 26 27 26 23 22
36 35 37 32 26 28 30 33 39 46 52 59 62 64 72 76 75 74 71 72 74 69 60 50 43 42 39 34 32 29 29 30 29 27 26 26 25 26 28 29 29 28 28
31 30 26 27 30 39 41 44 55 60 63 59 70 72 74 74 78 74 73 70 70 57 45 42 41 39 34 31 30 29 30 30 29 25 26 27 30 34 36 36 34 32 31
33 35 35 41 45 46 52 57 60 63 67 73 74 68 65 65 69 64 71 64 50 43 41 41 39 36 35 34 31 31 29 28 28 27 28 31 35 39 40 39 38 37 37
40 44 45 47 50 60 66 65 69 75 73 73 67 65 58 56 55 59 51 46 43 43 44 42 39 38 37 35 34 34 32 33 34 35 35 37 43 44 44 43 42 40 39
45 48 55 58 58 62 60 66 74 76 72 65 63 55 56 53 50 47 46 46 46 47 45 44 41 41 38 36 35 34 35 34 35 35 36 38 41 41 41 39 38 37 37
45 51 58 64 67 60 63 70 71 71 64 59 55 55 52 47 45 45 48 49 50 50 50 47 45 40 37 35 33 35 35 33 34 32 32 33 34 36 37 38 37 36 35
44 53 55 67 64 60 68 66 62 56 53 52 52 50 47 45 48 50 53 53 56 58 54 49 42 36 34 34 37 37 34 31 31 32 31 31 30 33 34 35 36 40 40
44 50 55 62 59 60 66 64 58 55 52 50 47 45 48 52 53 55 57 59 60 55 52 46 39 36 34 36 37 40 39 37 34 34 36 36 34 33 32 31 32 35 39
45 51 59 59 59 61 64 57 55 51 45 44 47 49 51 56 60 61 62 60 54 50 46 43 40 38 38 40 40 40 40 41 43 40 42 45 44 43 39 36 36 31 30
51 52 59 58 60 63 54 56 53 49 48 47 48 52 58 58 59 64 62 57 53 46 42 44 44 39 37 37 36 36 39 42 46 46 44 49 48 51 50 46 42 36 35
49 52 57 58 57 57 57 55 55 51 49 50 56 60 63 68 64 64 66 65 64 52 45 45 37 40 42 40 40 42 44 48 51 55 55 52 49 44 46 44 50 42 36

GFSSE_prec_cthk_048.txt.gz
RH
57 60 68 68 70 68 64 57 53 52 48 38 28 19 15 10 10 8 10 11 13 14 15 15 15 15 16 23 24 25 28 28 34 45 47 40 37 34 35 32 27 26 32
54 57 64 72 74 75 69 59 57 57 51 37 26 19 12 12 9 10 12 14 15 15 15 15 16 16 21 26 25 26 28 32 33 35 34 31 28 30 25 27 30 29 29
61 69 75 78 77 74 69 62 63 59 49 35 26 20 16 12 10 12 14 16 16 17 16 16 17 20 24 26 26 25 29 30 30 29 26 24 20 18 21 22 24 25 27
64 67 73 78 75 74 67 66 66 59 46 34 25 20 18 13 12 15 16 17 18 18 18 19 19 23 27 28 27 28 27 26 27 28 26 25 24 19 18 19 22 24 25
76 77 78 78 76 72 70 70 65 54 42 34 22 20 23 13 15 17 18 18 19 20 22 23 25 25 26 28 30 32 33 33 32 30 30 30 29 26 21 20 20 20 22
79 84 85 82 75 75 74 72 61 51 42 28 19 22 18 14 17 18 19 21 22 24 26 27 28 29 29 27 29 31 31 31 32 31 31 30 30 31 28 24 23 22 22
89 86 90 84 81 79 76 64 59 48 28 20 23 24 23 21 19 20 22 24 25 28 28 29 31 34 35 34 34 34 34 34 34 32 32 32 29 29 29 27 24 23 24
99 98 93 92 92 84 72 69 52 34 24 21 21 18 20 20 20 22 23 25 28 30 32 33 35 38 39 39 40 40 39 37 34 33 34 33 32 30 29 27 25 22 24
97 96 98 98 95 82 69 51 34 21 18 16 19 21 21 22 22 26 29 30 34 34 34 36 37 40 45 46 46 41 41 41 38 36 35 36 35 32 31 29 26 23 23
98 93 91 89 82 70 55 38 25 22 27 27 27 24 23 27 29 29 35 38 37 40 43 47 50 53 53 50 50 46 42 42 39 36 36 35 34 32 31 31 28 26 24
97 93 91 90 84 73 55 41 32 32 32 29 34 32 33 29 28 33 37 47 49 52 56 57 58 56 56 55 47 43 40 37 34 32 31 31 31 31 29 29 28 27 25
91 87 82 77 73 58 46 38 31 28 26 27 29 26 28 33 38 51 58 59 59 63 63 64 64 60 55 52 46 39 35 32 30 28 26 26 26 26 25 24 24 23 24
81 77 73 61 52 42 28 19 17 19 24 27 31 35 41 51 56 64 63 66 66 68 65 69 66 62 56 46 40 35 32 30 29 27 26 27 27 28 27 25 25 23 22
63 64 51 43 36 28 19 18 19 22 28 32 37 50 53 59 67 70 67 68 68 68 68 69 62 52 46 39 35 31 28 27 26 26 26 27 28 28 28 28 29 29 27
49 54 42 39 28 23 19 19 22 26 32 40 51 55 59 62 64 69 69 68 68 67 70 70 57 42 38 36 31 26 26 28 27 26 24 24 25 26 28 30 33 34 33
38 36 40 38 28 19 24 26 30 36 44 51 58 63 67 60 65 66 69 73 69 63 64 58 41 37 36 32 27 27 28 28 28 26 24 25 26 31 33 35 35 36 35
34 37 38 33 30 30 34 37 46 52 60 64 65 63 66 68 68 68 69 69 62 63 54 43 38 37 34 31 30 30 29 28 26 26 25 28 32 35 36 37 38 38 37
37 40 42 43 42 42 45 56 63 64 68 66 63 67 64 63 56 57 61 61 56 50 42 40 41 38 36 35 34 33 31 29 27 29 32 33 36 38 39 39 38 38 38
43 42 39 40 40 49 59 59 58 65 67 67 66 61 56 52 51 53 55 51 48 44 43 44 44 40 39 38 36 34 33 32 31 34 36 37 39 40 42 42 41 40 39
44 45 42 46 50 54 55 58 62 67 67 65 59 51 52 51 53 53 49 47 43 43 47 47 44 41 42 40 37 36 33 32 36 33 32 33 35 38 38 37 36 36 35
44 45 44 47 55 61 58 60 66 64 63 58 56 54 52 52 51 48 45 43 46 50 50 51 45 43 40 35 34 32 31 35 35 34 34 33 33 33 32 32 33 33 33
42 46 48 48 57 59 56 62 63 64 63 61 56 53 48 49 48 43 45 50 50 53 55 49 43 38 35 34 32 32 35 36 36 37 35 35 35 32 36 35 33 33 32
40 43 48 54 58 61 59 61 64 67 60 54 51 48 48 47 46 51 51 54 54 58 55 47 46 45 39 37 36 38 41 43 38 38 39 37 34 35 39 40 39 38 38
43 45 51 58 57 65 60 60 65 59 54 52 50 45 45 49 53 54 52 52 57 61 61 55 53 53 46 36 35 37 38 38 40 38 38 39 41 39 41 43 44 43 41
48 53 56 61 57 63 60 61 62 54 55 51 45 45 52 56 54 50 52 56 58 58 61 66 68 62 47 35 37 39 40 38 38 41 40 40 44 45 51 52 47 45 44
52 57 59 58 56 61 61 59 52 53 52 48 49 52 56 56 58 60 66 68 64 61 72 70 62 47 39 36 38 41 41 39 43 43 46 47 50 46 49 52 53 48 49

GFSSE_prec_cthk_051.txt.gz
RH
60 60 62 64 65 63 63 65 61 58 53 47 36 30 21 16 13 15 15 13 13 14 14 15 19 21 22 24 25 27 29 35 39 35 35 26 23 26 27 30 31 28 28
58 62 64 65 67 68 68 67 65 61 55 44 37 30 22 18 19 19 14 13 15 16 17 20 21 23 23 24 28 30 35 33 29 27 25 22 19 19 20 22 23 25 27
62 66 68 69 68 73 72 70 64 62 53 43 37 32 22 19 21 18 14 15 16 18 20 21 23 24 24 26 26 27 28 26 25 25 25 24 21 18 18 18 20 22 22
65 69 71 70 72 68 73 68 68 62 52 43 39 31 25 21 22 14 15 16 17 19 20 21 24 26 25 25 28 29 29 29 29 29 26 27 29 26 21 19 18 18 18
68 73 77 76 77 80 68 67 68 56 48 45 38 33 26 19 24 20 16 18 20 21 23 24 24 26 29 30 30 29 29 29 28 28 26 27 27 26 26 23 21 21 20
77 78 84 84 84 83 74 71 62 54 50 43 37 29 25 21 23 17 18 21 24 25 26 27 28 27 29 30 31 31 32 31 30 29 28 29 27 26 25 24 21 20 21
83 88 88 93 92 87 81 68 57 50 51 45 39 30 23 27 19 21 22 27 26 27 29 30 33 34 34 35 35 36 35 33 32 31 30 29 28 27 25 24 23 21 21
92 96 98 97 92 92 77 59 55 61 46 32 29 28 30 32 30 29 28 25 28 30 32 35 35 37 38 40 40 39 39 38 36 34 33 32 31 29 27 25 24 22 20
94 99 98 98 97 82 64 63 63 43 37 34 28 25 22 23 24 24 27 29 34 37 39 40 40 47 48 48 45 43 40 36 33 31 30 29 29 29 26 26 25 24 22
91 95 97 94 84 77 72 64 41 32 30 27 24 29 32 28 25 28 31 38 44 44 46 49 55 55 54 48 43 41 40 34 30 28 25 24 24 24 23 22 21 21 21
80 90 97 93 87 82 67 51 41 37 36 38 35 29 28 32 31 33 39 44 45 49 55 59 61 60 58 49 43 42 36 32 29 25 23 23 25 25 22 21 20 19 20
80 85 88 84 85 78 57 46 46 49 43 41 40 38 37 35 34 36 44 50 56 61 62 63 64 63 55 47 44 37 31 26 24 23 22 23 23 26 25 24 21 22 21
87 91 83 85 76 63 51 44 36 30 28 32 36 37 36 45 51 61 64 66 65 65 65 67 67 64 57 46 36 32 29 26 24 25 23 23 23 25 26 26 24 23 24
79 71 61 54 49 45 34 20 24 26 36 36 39 40 50 54 58 61 65 66 66 67 67 66 68 62 50 35 31 29 26 24 25 25 24 22 22 23 27 27 28 32 30
60 58 50 43 42 32 24 26 27 31 35 40 51 57 59 61 61 63 61 65 69 73 70 70 59 49 38 32 29 28 26 27 26 24 23 22 22 24 28 31 33 36 35
49 49 40 42 38 27 23 24 25 30 39 50 57 63 65 65 66 68 64 64 66 71 64 63 50 40 35 32 31 29 29 28 26 24 23 22 24 27 30 32 34 37 38
31 32 29 27 25 23 27 31 37 45 54 57 63 66 61 64 64 66 60 56 66 65 63 53 43 38 36 33 31 30 30 29 27 24 25 25 26 29 30 33 33 34 34
35 37 37 39 37 35 37 45 54 59 61 64 65 66 65 64 63 58 55 56 61 63 53 45 41 40 38 36 33 33 32 31 27 27 28 29 31 34 35 35 35 36 37
41 41 45 45 42 41 49 55 56 56 62 66 70 66 65 58 55 53 57 58 61 51 44 41 42 41 37 34 32 32 32 30 30 31 30 32 34 35 37 36 35 35 35
50 53 50 51 52 51 55 56 58 63 65 65 63 63 54 51 52 57 58 55 48 43 41 43 44 40 40 32 32 34 31 33 35 34 35 34 32 35 37 36 35 33 32
47 51 50 47 51 54 59 57 62 63 64 64 63 57 53 54 54 52 48 44 41 42 46 47 43 44 43 38 41 44 41 40 37 38 39 36 39 38 36 35 34 32 32
43 49 54 52 50 60 61 60 60 60 64 66 61 59 57 54 48 45 43 42 45 48 49 49 50 51 49 50 53 53 48 46 43 42 40 43 42 39 36 36 37 37 39
44 45 50 55 59 57 60 64 58 61 65 64 61 59 57 50 46 44 44 49 51 51 53 55 56 54 57 63 62 50 44 44 41 40 44 46 42 40 40 41 45 47 44
48 52 55 58 64 60 63 66 63 63 67 63 60 57 52 48 44 45 50 55 59 63 63 69 67 64 62 61 51 44 43 44 42 43 44 43 41 39 44 50 49 48 47
53 53 58 65 71 65 64 69 69 64 68 61 57 54 49 44 47 52 55 64 70 67 72 69 70 72 71 64 50 49 45 42 45 48 49 49 47 41 42 49 53 49 51
58 60 61 66 73 66 62 70 67 61 64 58 56 52 48 49 54 62 71 68 75 86 77 75 76 69 68 58 51 47 46 47 50 52 53 52 49 51 47 53 55 56 51

GFSSE_prec_cthk_057.txt.gz
RH
64 69 66 66 63 62 59 58 58 56 57 60 55 42 33 27 25 23 19 19 17 14 16 19 21 22 23 24 26 25 24 21 18 17 16 15 14 14 15 15 16 19 22
63 69 70 69 66 64 60 57 57 55 57 59 47 39 31 28 29 25 21 20 18 18 19 20 21 21 23 22 21 21 22 22 21 21 20 20 17 17 16 16 16 16 17
69 71 73 73 71 69 64 62 60 55 52 52 41 35 32 33 33 26 23 24 20 18 19 20 21 21 22 22 23 23 24 23 23 22 22 24 22 20 18 18 17 18 17
78 78 77 77 77 73 71 69 62 53 50 44 34 37 34 40 32 27 25 26 20 18 19 21 22 23 25 25 26 25 25 24 23 23 23 26 27 22 20 19 18 19 20
83 80 83 84 84 82 78 71 63 54 50 44 41 38 43 37 34 33 29 26 24 21 22 23 25 26 28 28 28 27 26 27 27 27 29 28 31 25 23 22 20 19 19
85 85 87 86 85 86 83 76 63 56 53 48 45 44 41 40 37 32 34 33 32 23 25 26 29 29 32 33 33 31 31 31 31 29 29 28 31 25 24 24 23 22 21
98 95 91 91 88 88 85 79 67 59 55 45 48 46 42 40 34 34 35 32 26 26 28 32 33 35 38 43 40 37 35 33 31 28 29 31 28 22 19 18 17 18 19
89 90 98 98 96 98 86 77 66 64 50 51 51 49 46 44 39 39 38 33 29 32 36 40 40 44 48 47 44 39 38 35 31 28 29 32 22 19 17 16 14 14 14
91 93 98 99 98 94 90 68 64 59 55 53 55 54 49 39 48 44 39 36 35 39 43 44 49 52 52 50 45 41 37 33 29 27 27 28 24 23 17 16 16 15 16
86 90 86 83 91 89 92 79 62 57 59 61 51 46 50 50 45 40 37 39 40 41 48 53 55 56 59 52 46 42 37 34 28 23 22 26 27 28 22 18 17 17 17
79 79 82 78 83 90 82 72 65 68 71 57 56 51 40 42 44 42 39 41 43 49 57 60 61 62 66 56 46 42 38 34 25 21 22 21 22 24 23 20 19 18 18
78 77 79 79 81 79 80 82 86 80 63 50 46 47 48 45 42 43 43 47 54 63 65 65 67 67 58 47 38 37 30 26 24 22 22 21 20 25 28 24 24 22 22
86 81 83 85 85 81 85 88 76 57 51 55 54 49 47 45 48 49 52 63 68 66 68 69 66 65 63 53 40 33 28 26 24 22 22 21 20 27 27 26 29 29 27
90 86 80 79 80 83 76 61 57 60 56 51 47 46 46 50 50 59 70 74 74 72 68 66 61 62 57 46 33 31 30 26 24 23 22 20 19 23 28 27 29 29 30
80 82 80 85 79 71 62 51 52 50 45 47 49 47 46 50 62 73 76 74 71 71 61 55 60 62 49 38 32 33 30 26 25 23 21 18 19 25 29 29 31 30 32
70 73 68 66 63 55 47 46 43 45 44 44 47 55 63 71 72 76 75 71 66 57 51 54 55 46 37 35 35 32 29 27 27 22 19 20 22 24 26 28 29 32 32
55 51 49 45 40 35 30 29 33 36 39 46 57 65 72 72 72 76 76 69 59 52 53 55 51 40 37 37 33 30 28 28 28 26 22 26 31 32 33 33 34 34 32
53 50 43 39 34 29 23 22 28 38 53 63 65 70 78 74 72 77 64 62 57 53 54 57 44 37 39 36 32 32 31 30 29 29 30 35 36 32 35 34 34 34 34
44 44 40 37 36 34 34 38 46 50 56 57 58 62 69 76 73 68 59 55 54 55 54 47 40 38 39 37 36 33 32 31 32 34 38 40 36 33 32 33 32 32 31
41 42 45 42 43 45 41 41 45 47 51 56 61 68 71 67 61 62 54 53 54 52 49 40 41 41 41 41 41 42 41 40 42 42 40 40 38 40 42 40 38 37 36
46 48 48 47 48 49 48 50 51 54 50 59 66 73 75 64 61 58 56 54 52 51 42 41 43 43 45 50 51 49 51 53 54 53 47 42 39 41 43 42 40 41 43
47 49 52 51 53 55 55 52 51 51 54 62 69 75 76 67 62 59 57 56 50 48 42 45 50 55 59 59 57 61 63 60 55 55 50 50 47 46 47 48 48 49 50
43 45 48 49 52 58 62 56 54 59 62 65 66 76 75 71 63 59 60 55 50 46 50 56 60 66 69 71 71 75 72 64 59 61 56 52 50 52 52 50 49 48 49
38 42 46 50 51 55 61 60 54 58 61 66 75 82 86 82 72 61 59 53 51 58 62 67 71 77 82 81 77 76 74 66 62 59 55 51 53 56 56 50 49 46 48
49 50 51 52 53 58 66 67 60 59 67 77 86 89 91 93 80 64 62 56 62 68 71 73 77 84 88 90 87 80 75 63 62 60 56 61 63 59 56 53 48 46 40
55 56 60 58 59 61 67 75 75 70 72 79 85 86 87 85 73 77 64 66 69 69 76 82 85 91 94 91 84 79 72 67 65 63 61 62 59 62 60 54 48 37 33

GFSSE_prec_cthk_060.txt.gz
RH
63 62 59 61 66 67 70 66 64 63 62 58 54 48 39 32 25 25 21 19 19 20 19 20 21 22 23 25 21 19 19 19 19 18 17 16 15 15 15 17 23 22 22
70 67 62 64 69 69 67 66 66 66 60 54 48 42 34 29 27 29 25 22 24 23 20 19 19 21 20 20 19 20 21 21 20 21 24 23 19 18 17 16 16 17 18
75 73 67 68 71 71 70 70 69 63 58 51 43 38 35 29 31 31 29 26 28 25 21 19 18 20 21 22 21 21 21 21 21 22 29 33 25 20 19 18 19 19 18
78 79 74 71 72 72 73 72 71 66 58 48 38 34 35 31 32 33 31 28 28 24 21 21 23 24 24 24 23 22 22 23 24 31 35 35 28 21 21 20 19 20 23
81 88 84 79 79 78 76 77 74 66 56 44 41 33 36 39 36 35 33 30 29 25 23 25 28 27 27 27 26 26 26 26 29 36 35 37 31 23 23 23 22 21 21
85 96 92 86 84 83 82 79 72 61 51 44 44 35 40 42 38 39 36 33 31 31 27 29 33 31 32 31 29 30 30 29 36 38 39 31 31 22 21 19 18 18 18
98 98 95 91 89 87 86 81 73 63 55 48 47 43 42 44 42 42 34 38 39 37 34 34 36 37 37 35 35 34 32 32 40 39 40 35 29 19 17 15 14 14 13
87 97 98 98 96 98 93 82 77 65 57 55 51 47 48 44 44 42 40 40 40 39 38 38 42 45 45 43 40 38 36 37 40 40 39 33 23 19 15 14 14 14 14
92 97 95 90 94 99 96 93 87 71 62 57 52 53 50 48 45 44 44 43 43 41 42 46 51 52 49 46 41 39 38 35 39 36 36 34 24 23 17 15 15 15 15
86 90 98 94 94 92 93 89 85 72 63 56 57 60 60 51 45 51 46 46 48 44 46 53 56 58 57 50 45 39 37 38 37 35 33 27 27 26 24 17 16 17 17
81 82 85 85 87 81 91 85 88 72 59 58 65 66 53 55 55 50 48 46 48 50 53 58 62 64 61 49 44 38 34 32 30 29 28 21 27 28 26 22 18 18 18
81 82 80 81 83 84 89 85 80 76 69 72 68 64 61 51 53 50 45 43 50 55 59 64 65 67 63 52 48 42 36 31 28 26 25 21 23 27 26 27 26 21 21
87 88 86 88 87 89 86 83 79 73 79 77 68 58 55 56 50 43 45 54 63 66 67 68 69 64 58 51 47 40 33 30 28 27 23 20 17 25 24 27 24 26 25
90 95 92 92 84 83 80 76 77 85 78 66 60 59 55 50 48 52 60 68 71 73 74 70 64 54 54 48 41 35 30 27 28 26 24 18 18 28 30 31 28 27 26
90 89 94 93 83 81 78 85 82 70 60 60 55 55 53 54 51 55 69 74 74 70 66 62 54 50 41 36 36 33 29 27 25 27 30 22 23 30 30 28 28 29 30
91 89 91 89 89 82 76 70 62 60 58 53 54 51 50 50 55 69 75 75 71 67 56 51 51 47 37 37 36 32 29 28 26 26 29 27 26 28 28 29 30 31 31
78 78 81 79 73 65 59 54 54 51 51 54 49 49 56 64 73 75 76 78 73 60 53 50 51 45 36 37 35 31 31 28 26 25 30 35 39 35 31 31 31 31 32
63 67 62 57 54 50 48 47 48 47 45 45 50 58 67 72 72 76 81 77 63 57 51 51 48 41 38 37 35 36 36 33 30 32 35 40 43 40 39 35 31 33 33
51 49 48 45 39 38 33 31 36 40 46 60 68 72 72 82 83 84 77 71 59 53 50 50 46 39 38 38 38 43 43 41 40 42 44 45 44 42 39 38 33 31 33
49 46 45 38 39 37 35 32 43 57 63 61 59 61 65 73 77 72 72 67 56 53 51 51 43 38 41 45 48 51 50 48 51 54 53 51 49 46 48 44 41 46 42
38 40 41 40 46 50 51 47 51 51 55 54 59 65 67 76 77 76 70 58 56 54 52 48 41 43 49 54 56 57 59 57 58 58 60 58 57 51 46 45 47 51 50
44 46 50 51 50 48 49 49 50 50 56 57 60 60 71 77 79 75 67 56 56 55 50 50 48 53 59 59 63 67 67 61 60 64 65 63 64 57 54 56 54 54 53
47 48 51 52 52 54 58 59 57 57 57 55 59 60 75 86 84 78 68 63 60 57 57 56 57 60 65 68 70 74 74 71 66 63 63 67 64 57 59 65 62 53 48
45 48 49 51 54 56 60 64 64 60 61 63 62 66 77 86 88 85 80 84 68 67 62 62 64 64 67 73 78 83 87 82 78 71 68 66 65 66 66 64 56 47 38
44 47 49 50 51 53 55 65 72 66 59 60 68 76 86 90 91 93 91 85 75 76 68 68 68 67 74 82 90 89 87 89 82 76 72 67 64 65 63 57 48 40 37
50 55 55 58 58 58 59 61 68 78 75 70 68 77 84 88 86 83 82 84 85 79 72 73 73 77 85 89 94 96 89 85 78 70 65 65 67 64 55 48 40 31 27

GFSSE_prec_cthk_063.txt.gz
RH
58 59 55 60 60 61 63 65 66 62 63 61 56 43 40 32 27 25 24 25 27 26 25 25 24 25 22 18 17 18 18 18 19 19 17 15 15 15 17 19 23 20 18
51 57 56 60 64 65 65 67 67 66 67 64 55 40 33 30 29 28 27 28 28 27 26 25 23 19 20 20 19 19 20 20 22 25 27 22 19 18 18 18 20 22 20
62 59 58 61 65 67 72 72 70 69 69 63 53 40 29 32 31 30 32 31 29 26 26 23 22 22 23 21 20 20 20 23 29 35 38 32 26 20 19 20 24 21 22
68 68 67 68 71 74 77 79 77 77 73 64 51 38 32 32 33 32 34 34 33 29 28 26 25 25 24 23 23 23 23 28 35 43 42 35 29 23 25 21 21 20 23
78 77 75 76 79 79 83 84 81 78 72 63 47 40 35 34 34 39 35 35 38 32 32 30 29 29 28 26 25 25 29 34 38 39 36 31 28 21 20 22 21 19 18
79 82 91 83 83 86 87 85 84 76 69 58 46 42 37 38 39 42 37 39 42 37 36 35 36 33 31 28 29 29 34 38 45 47 41 31 23 19 16 15 14 14 14
74 82 99 93 97 95 92 86 81 73 63 55 47 45 40 43 43 44 38 41 39 39 40 42 40 36 35 31 32 34 38 41 48 47 40 30 21 18 16 14 13 13 12
81 89 96 99 98 97 96 89 82 69 59 56 49 46 43 45 45 45 46 40 43 48 48 47 44 39 38 38 39 37 38 42 46 48 41 31 19 16 13 13 13 13 14
83 87 87 98 98 98 95 94 89 72 67 60 52 51 47 55 50 48 46 47 51 51 52 51 45 46 46 43 41 37 37 42 44 43 39 30 21 18 15 14 14 14 14
84 84 78 79 90 92 92 91 88 84 71 59 57 56 59 55 54 54 53 50 52 56 56 52 53 54 49 45 41 40 40 38 36 36 32 24 25 26 18 16 16 16 16
85 87 91 89 90 92 90 89 89 84 74 65 65 62 63 63 57 57 56 54 56 58 59 55 55 55 52 46 43 43 44 36 31 32 29 23 27 26 24 18 17 17 17
86 91 93 94 96 90 89 88 86 87 75 70 70 72 77 67 61 62 60 59 61 57 58 56 58 59 52 47 46 45 41 34 31 27 24 18 25 27 27 26 23 20 18
87 90 92 96 92 92 87 90 94 88 70 71 75 78 72 73 69 59 57 55 55 58 61 64 64 60 52 44 44 40 34 30 28 27 24 20 21 28 28 26 27 25 24
89 86 90 92 95 95 93 88 88 77 70 73 77 71 74 73 66 59 55 60 66 72 73 68 62 54 43 35 34 32 30 29 27 26 26 21 20 28 31 30 31 32 31
86 93 98 99 98 98 93 87 84 76 82 79 73 69 71 70 65 58 60 72 76 73 70 62 54 50 40 33 33 32 29 28 27 30 28 22 24 33 33 30 32 32 32
93 95 92 94 98 91 87 82 83 85 81 71 68 68 68 66 62 61 69 77 79 77 66 57 50 47 38 33 36 32 30 30 27 28 33 31 28 29 29 29 31 34 32
96 92 94 89 89 90 93 87 84 81 74 66 64 64 65 63 57 65 81 83 80 75 62 55 51 44 38 35 36 34 33 34 31 33 35 39 39 39 36 35 34 33 32
81 88 90 87 87 88 87 80 71 61 57 58 63 58 54 61 64 73 77 82 84 70 62 52 47 45 39 36 36 37 40 39 38 39 39 42 48 40 39 42 39 33 31
60 58 61 66 64 63 63 58 57 59 58 55 55 60 64 65 73 75 82 87 78 72 59 54 47 45 38 37 39 44 46 45 47 44 44 45 47 46 46 42 42 37 38
63 60 53 49 52 48 44 46 51 53 51 57 66 70 72 77 82 83 87 80 75 68 57 51 48 46 39 44 46 48 48 49 50 52 52 52 52 53 52 53 48 47 44
42 40 42 40 37 43 41 41 46 53 61 67 65 68 68 72 73 79 83 78 71 61 57 51 50 47 45 52 56 55 54 54 55 56 57 56 56 57 54 53 54 56 52
36 38 40 40 41 46 52 47 45 47 51 56 59 64 62 69 75 82 83 81 74 59 58 57 55 55 56 58 58 59 63 63 61 61 66 63 66 67 63 57 55 53 51
44 44 46 50 49 47 54 51 52 52 53 57 58 60 60 68 71 82 87 87 80 77 75 73 68 64 65 62 61 65 69 73 75 72 64 68 73 73 68 61 58 56 52
44 44 45 51 55 57 56 62 58 57 58 61 62 66 63 65 77 86 89 90 90 87 86 78 78 75 71 69 70 70 77 84 84 80 82 74 67 66 65 62 61 54 45
41 42 44 45 51 55 54 55 61 58 64 68 68 66 66 68 76 87 92 92 96 93 90 83 86 85 77 78 75 81 84 88 87 83 76 77 73 67 66 64 59 48 34
46 47 49 51 52 61 63 60 62 66 69 70 74 77 69 70 79 87 92 95 95 92 92 94 91 92 82 80 85 89 86 90 87 82 75 71 68 70 69 63 50 37 31